THOR BURNER 2 R/B, 2741

Orbit data source: Space-Track

THOR BURNER 2 R/B, 2741 is space debris in SSO originally from a launch on Wed, 08 Feb 1967 UTC launched from the Air Force Western Test Range (AFWTR). Debris objects in space refer to the collection of defunct objects orbiting the Earth. Examples of debris include non-operational satellites, rocket bodies, and fragments generated from explosions, collisions, or faulty payload assembly.

Loading next visibility...
Identifier
2741, 1967-010B
Orbit
SSO
Country
Flag of USUS
Related business
Manufacturer
Thiokol/TE
Mission
Spacecraft
Bus & Motor
STAR 37, Unknown motor
Mass
136 kg wet, 136 kg dry
Launch date (UTC)
1967-02-08 (59 years ago)
Launch vehicle
Unknown
Launch site
Air Force Western Test Range (AFWTR)
Object type
Payload
Rocket body
Debris
Shape & HBR
Sphere + Cone + 1 Truss, 0.8 m
Radar Cross Section
2.270 m², Large (>1 m²)

Expand to show TLE details & history
Last TLE update: 1 day ago

TLE from 1 day ago
0 THOR BURNER 2 R/B
1 02741U 67010B   25260.86599015  .00000211  00000-0  10046-3 0  9994
2 02741  98.9362 202.2423 0052690 357.0333   3.0528 14.29073843 46373
Epoch: 2025-09-17T20:47Z
TLE epoch observation values (Epoch: 2025-09-17T20:47:01.548Z)
Latitude
-0.00003°
Longitude
-106.54994°
Altitude
760 km
Speed
7.494 km/s
True Right ascension
13h 28m 58s
True Declination
0° 00' 00"
Sunlit
Object was in daylight at epoch
Visualization orbit readout
Latitude
Unknown
Longitude
Unknown
Altitude
Unknown
Speed
Unknown
Apparent Right ascension
Unknown
Apparent Declination
Unknown
Sunlit
N/A
Visualization observer readout
Local Sidereal Time
21:03:52
Azimuth
Unknown
Elevation
Unknown
Doppler factor
Unknown
Orbital elements
Apogee altitude
829.765 km
Perigee altitude
754.206 km
Semi-major axis
7,170.123 km
Eccentricity
0.00527
Inclination
98.9362°
RAAN
202.2423°
Arg. of periapsis
357.0333°
True anomaly
3.08517°
Mean anomaly
3.0528°
Eccentric anomaly
3.06896°
Mean motion
3.57481 °/min
Orbital period
100.7 mins
BSTAR
0.00010046
Loading maneuver chart data...
Computing Atmospheric mass density...
Loading historical data...
Loading historical data...
Loading historical data...
Loading historical data...
Loading historical data...
Loading historical data...
Loading historical data...
Other satellites on launch #10 in the year 1967 (1967-02-08 UTC)

Documentation

Showing up to 5 results
|